Weather History for Syracuse, NY

Change the Weather History Date:

Thursday, March 29, 2012

  Actual Average Record
Temperature  
Mean Temperature 40 °F 39 °F  
Max Temperature 42 °F 49 °F 82 °F (1946)
Min Temperature 37 °F 30 °F 2 °F (1923)
Degree Days  
Heating Degree Days 25 26  
Month to date heating degree days 516 907  
Since 1 July heating degree days 4382 5738  
Cooling Degree Days 0 0  
Month to date cooling degree days 1 0  
Year to date cooling degree days 1 0  
Moisture  
Dew Point 34 °F    
Average Humidity 73    
Maximum Humidity 92    
Minimum Humidity 54    
Precipitation  
Precipitation 0.05 in 0.10 in 1.35 in (1954)
Month to date precipitation 1.96 2.74  
Year to date precipitation 7.25 7.31  
Snow  
Snow 0.00 in 0.30 in 10.30 in (1954)
Month to date snowfall 7.2 17.5  
Since 1 July snowfall 50.6 119.4  
Snow Depth 0.00 in    
Sea Level Pressure  
Sea Level Pressure 29.89 in    
Wind  
Wind Speed 12 mph (NNW)    
Max Wind Speed 20 mph    
Max Gust Speed 25 mph    
Visibility 10 miles    
Events Rain    
T = Trace of Precipitation, MM = Missing Value Source: NWS Daily Summary

Daily Weather History Graph

Daily Weather History Graph

Search for Another Location

Airport:

Trip Planner

Search our weather history database for the weather conditions in past years. The results will help you decide how hot, cold, wet, or windy it might be!

Date:

Astronomy

Mar. 29, 2012 Rise Set
Actual Time 6:50 AM EDT 7:27 PM EDT
Civil Twilight 6:22 AM EDT 7:56 PM EDT
Nautical Twilight 5:48 AM EDT 8:30 PM EDT
Astronomical Twilight 5:13 AM EDT 9:05 PM EDT
Moon 10:49 AM EDT (3/29) 1:25 AM EDT (3/29)
Length of Visible Light 13h 34m
Length of Day
12h 37m
Waxing Crescent, 39% of the Moon is Illuminated
Mar 29
Waxing Crescent
Mar 30
First Quarter
Apr 6
Full
Apr 13
Last Quarter
Apr 21
New

Hourly Weather History & Observations

Time (EDT) Temp. Windchill Dew Point Humidity Pressure Visibility Wind Dir Wind Speed Gust Speed Precip Events Conditions
12:16 AM 42.8 °F 34.3 °F 37.4 °F 81% 29.71 in 10.0 mi NW 19.6 mph 31.1 mph 0.00 in Rain Light Rain
12:54 AM 42.1 °F 34.5 °F 37.9 °F 85% 29.70 in 10.0 mi NW 15.0 mph 27.6 mph 0.00 in Rain Light Rain
1:54 AM 41.0 °F 33.9 °F 37.0 °F 86% 29.71 in 10.0 mi NW 12.7 mph 23.0 mph 0.02 in Rain Light Rain
2:54 AM 39.9 °F 31.8 °F 37.0 °F 89% 29.71 in 10.0 mi NW 15.0 mph - 0.00 in Rain Light Rain
3:54 AM 39.9 °F 32.9 °F 37.9 °F 93% 29.73 in 6.0 mi NW 11.5 mph 18.4 mph 0.00 in Rain Light Rain
4:54 AM 39.9 °F 33.9 °F 37.9 °F 93% 29.75 in 9.0 mi NW 9.2 mph - 0.01 in Rain Light Rain
5:54 AM 39.9 °F 33.4 °F 37.9 °F 93% 29.78 in 10.0 mi NW 10.4 mph - 0.00 in Rain Light Rain
6:00 AM 39.2 °F 33.0 °F 37.4 °F 93% 29.78 in 10.0 mi NW 9.2 mph - 0.01 in Rain Light Rain
6:36 AM 39.2 °F 31.2 °F 37.4 °F 93% 29.80 in 8.0 mi NNW 13.8 mph - 0.01 in Rain Light Rain
6:54 AM 39.0 °F 31.8 °F 37.0 °F 93% 29.81 in 8.0 mi North 11.5 mph - 0.02 in Rain Light Rain
7:11 AM 37.4 °F 29.3 °F 35.6 °F 93% 29.83 in 10.0 mi North 12.7 mph - 0.00 in Rain Light Rain
7:24 AM 37.4 °F 30.3 °F 35.6 °F 93% 29.83 in 10.0 mi NNW 10.4 mph - 0.00 in Rain Light Rain
7:54 AM 39.0 °F 32.3 °F 36.0 °F 89% 29.84 in 10.0 mi NNW 10.4 mph - 0.00 in Rain Light Rain
8:20 AM 39.2 °F 33.6 °F 35.6 °F 87% 29.86 in 6.0 mi North 8.1 mph - 0.00 in Rain Light Rain
8:39 AM 37.4 °F 28.9 °F 35.6 °F 93% 29.87 in 6.0 mi North 13.8 mph - 0.00 in Rain Light Rain
8:54 AM 37.9 °F 30.0 °F 36.0 °F 93% 29.87 in 10.0 mi North 12.7 mph - 0.00 in Rain Light Rain
9:24 AM 37.4 °F 29.3 °F 35.6 °F 93% 29.88 in 10.0 mi NNW 12.7 mph - 0.01 in Rain Light Rain
9:54 AM 37.9 °F 29.2 °F 35.1 °F 89% 29.90 in 10.0 mi NNW 15.0 mph - 0.01 in Rain Light Rain
10:54 AM 39.0 °F 30.6 °F 34.0 °F 82% 29.93 in 10.0 mi NNW 15.0 mph - 0.00 in   Light Drizzle
11:54 AM 37.9 °F 30.5 °F 34.0 °F 86% 29.95 in 10.0 mi NNW 11.5 mph - 0.00 in   Light Drizzle
12:54 PM 39.0 °F 31.4 °F 33.1 °F 79% 29.96 in 10.0 mi NNW 12.7 mph - 0.00 in   Overcast
1:54 PM 39.9 °F 32.9 °F 32.0 °F 73% 29.97 in 10.0 mi NNW 11.5 mph - 0.00 in Rain Light Rain
2:30 PM 39.2 °F 30.5 °F 30.2 °F 70% 29.97 in 10.0 mi NNW 16.1 mph 21.9 mph 0.00 in Rain Light Rain
2:54 PM 39.9 °F 31.8 °F 30.0 °F 68% 29.97 in 10.0 mi NNW 15.0 mph - 0.00 in   Overcast
3:07 PM 39.2 °F 30.5 °F 30.2 °F 70% 29.98 in 10.0 mi NNW 16.1 mph - N/A   Overcast
3:54 PM 39.9 °F 32.1 °F 30.9 °F 70% 29.99 in 10.0 mi NNW 13.8 mph - N/A   Overcast
4:54 PM 39.9 °F 32.5 °F 30.0 °F 68% 29.99 in 10.0 mi NNW 12.7 mph - 0.00 in   Overcast
5:54 PM 39.9 °F 32.1 °F 30.0 °F 68% 30.01 in 10.0 mi NW 13.8 mph 20.7 mph N/A   Overcast
6:54 PM 39.0 °F 32.8 °F 30.0 °F 70% 30.03 in 10.0 mi NW 9.2 mph 18.4 mph N/A   Overcast
7:54 PM 39.0 °F 32.8 °F 30.9 °F 73% 30.03 in 10.0 mi NW 9.2 mph - N/A   Overcast
8:54 PM 39.0 °F 34.0 °F 30.0 °F 70% 30.03 in 10.0 mi NNW 6.9 mph - N/A   Overcast
9:54 PM 39.0 °F 31.8 °F 30.0 °F 70% 30.06 in 10.0 mi NW 11.5 mph - N/A   Overcast
10:54 PM 37.9 °F 30.9 °F 27.0 °F 65% 30.07 in 10.0 mi North 10.4 mph - 0.00 in   Overcast
11:54 PM 37.0 °F 29.8 °F 23.0 °F 57% 30.08 in 10.0 mi North 10.4 mph - N/A   Overcast